Time,TemperatureF,DewpointF,PressureIn,WindDirection,WindDirectionDegrees,WindSpeedMPH,WindSpeedGustMPH,Humidity,HourlyPrecipIn,Conditions,Clouds,dailyrainin,SoftwareType,DateUTC
2013-07-29 00:08:00,63.9,49.0,29.78,SSW,207,2.0,5.0,59,0.00,,,0.00,weatherlink.com 1.10,2013-07-29 07:08:00,
2013-07-29 00:23:00,62.8,49.0,29.78,SSW,203,0.0,1.0,62,0.00,,,0.00,weatherlink.com 1.10,2013-07-29 07:23:00,
2013-07-29 00:38:00,62.4,49.0,29.78,South,169,0.0,3.0,63,0.00,,,0.00,weatherlink.com 1.10,2013-07-29 07:38:00,
2013-07-29 00:53:00,62.1,50.0,29.79,SSE,153,0.0,2.0,64,0.00,,,0.00,weatherlink.com 1.10,2013-07-29 07:53:00,
2013-07-29 01:08:00,61.4,50.0,29.79,SSE,158,1.0,3.0,66,0.00,,,0.00,weatherlink.com 1.10,2013-07-29 08:08:00,
2013-07-29 01:23:00,60.6,50.0,29.79,SE,129,0.0,2.0,68,0.00,,,0.00,weatherlink.com 1.10,2013-07-29 08:23:00,
2013-07-29 01:38:00,60.0,50.0,29.79,SSW,194,2.0,3.0,69,0.00,,,0.00,weatherlink.com 1.10,2013-07-29 08:38:00,
2013-07-29 01:53:00,59.2,50.0,29.79,SE,128,1.0,3.0,72,0.00,,,0.00,weatherlink.com 1.10,2013-07-29 08:53:00,
2013-07-29 02:08:00,58.7,50.0,29.79,ESE,123,2.0,3.0,73,0.00,,,0.00,weatherlink.com 1.10,2013-07-29 09:08:00,
2013-07-29 02:23:00,58.3,50.0,29.80,SE,134,1.0,4.0,75,0.00,,,0.00,weatherlink.com 1.10,2013-07-29 09:23:00,
2013-07-29 02:38:00,57.9,50.0,29.80,ESE,123,3.0,4.0,76,0.00,,,0.00,weatherlink.com 1.10,2013-07-29 09:38:00,
2013-07-29 02:54:00,57.6,50.0,29.80,East,101,2.0,5.0,77,0.00,,,0.00,weatherlink.com 1.10,2013-07-29 09:54:00,
2013-07-29 03:09:00,57.4,51.0,29.80,SE,136,1.0,3.0,78,0.00,,,0.00,weatherlink.com 1.10,2013-07-29 10:09:00,
2013-07-29 03:24:00,57.3,51.0,29.80,ESE,118,1.0,4.0,78,0.00,,,0.00,weatherlink.com 1.10,2013-07-29 10:24:00,
2013-07-29 03:54:00,56.7,51.0,29.81,East,97,1.0,3.0,80,0.00,,,0.00,weatherlink.com 1.10,2013-07-29 10:54:00,
2013-07-29 04:09:00,56.4,50.0,29.82,SE,134,2.0,5.0,80,0.00,,,0.00,weatherlink.com 1.10,2013-07-29 11:09:00,
2013-07-29 04:24:00,56.2,50.0,29.82,SE,128,2.0,3.0,81,0.00,,,0.00,weatherlink.com 1.10,2013-07-29 11:24:00,
2013-07-29 04:39:00,55.9,51.0,29.82,SE,146,0.0,3.0,82,0.00,,,0.00,weatherlink.com 1.10,2013-07-29 11:39:00,
2013-07-29 05:24:00,55.1,50.0,29.83,SE,127,1.0,5.0,84,0.00,,,0.00,weatherlink.com 1.10,2013-07-29 12:24:00,
2013-07-29 05:39:00,54.7,50.0,29.84,East,99,2.0,4.0,85,0.00,,,0.00,weatherlink.com 1.10,2013-07-29 12:39:00,
2013-07-29 05:54:00,54.5,50.0,29.84,ESE,122,3.0,5.0,85,0.00,,,0.00,weatherlink.com 1.10,2013-07-29 12:54:00,
2013-07-29 06:09:00,54.3,50.0,29.85,ESE,108,1.0,5.0,86,0.00,,,0.00,weatherlink.com 1.10,2013-07-29 13:09:00,
2013-07-29 06:24:00,54.3,51.0,29.85,East,96,0.0,3.0,87,0.00,,,0.00,weatherlink.com 1.10,2013-07-29 13:24:00,
2013-07-29 06:39:00,54.6,51.0,29.86,ESE,117,0.0,4.0,86,0.00,,,0.00,weatherlink.com 1.10,2013-07-29 13:39:00,
2013-07-29 06:54:00,55.0,51.0,29.86,SE,128,4.0,4.0,86,0.00,,,0.00,weatherlink.com 1.10,2013-07-29 13:54:00,
2013-07-29 07:09:00,55.6,51.0,29.87,ESE,123,2.0,5.0,85,0.00,,,0.00,weatherlink.com 1.10,2013-07-29 14:09:00,
2013-07-29 07:24:00,56.3,52.0,29.87,SE,143,1.0,5.0,84,0.00,,,0.00,weatherlink.com 1.10,2013-07-29 14:24:00,
2013-07-29 07:39:00,57.0,52.0,29.88,ESE,103,2.0,6.0,83,0.00,,,0.00,weatherlink.com 1.10,2013-07-29 14:39:00,
2013-07-29 07:54:00,58.0,52.0,29.88,SSE,160,4.0,5.0,81,0.00,,,0.00,weatherlink.com 1.10,2013-07-29 14:54:00,
2013-07-29 08:09:00,58.5,52.0,29.89,SE,140,2.0,8.0,80,0.00,,,0.00,weatherlink.com 1.10,2013-07-29 15:09:00,
2013-07-29 08:39:00,60.2,53.0,29.90,SSE,154,2.0,5.0,76,0.00,,,0.00,weatherlink.com 1.10,2013-07-29 15:39:00,
2013-07-29 08:54:00,61.6,52.0,29.90,SSE,153,4.0,6.0,72,0.00,,,0.00,weatherlink.com 1.10,2013-07-29 15:54:00,
2013-07-29 09:09:00,62.9,53.0,29.91,South,171,3.0,9.0,70,0.00,,,0.00,weatherlink.com 1.10,2013-07-29 16:09:00,
2013-07-29 09:25:00,63.9,53.0,29.91,ESE,122,2.0,8.0,68,0.00,,,0.00,weatherlink.com 1.10,2013-07-29 16:25:00,
2013-07-29 09:40:00,64.5,53.0,29.91,SE,142,2.0,6.0,67,0.00,,,0.00,weatherlink.com 1.10,2013-07-29 16:40:00,
2013-07-29 09:55:00,65.9,53.0,29.91,SSE,157,2.0,6.0,63,0.00,,,0.00,weatherlink.com 1.10,2013-07-29 16:55:00,
2013-07-29 10:10:00,66.7,53.0,29.91,SE,133,4.0,8.0,62,0.00,,,0.00,weatherlink.com 1.10,2013-07-29 17:10:00,
2013-07-29 10:25:00,67.5,52.0,29.91,SE,131,2.0,9.0,59,0.00,,,0.00,weatherlink.com 1.10,2013-07-29 17:25:00,
2013-07-29 10:55:00,69.8,52.0,29.92,SSE,156,0.0,8.0,54,0.00,,,0.00,weatherlink.com 1.10,2013-07-29 17:55:00,
2013-07-29 11:10:00,72.4,53.0,29.92,SE,141,2.0,5.0,51,0.00,,,0.00,weatherlink.com 1.10,2013-07-29 18:10:00,
2013-07-29 11:25:00,72.9,53.0,29.92,SW,236,2.0,8.0,49,0.00,,,0.00,weatherlink.com 1.10,2013-07-29 18:25:00,
2013-07-29 11:40:00,74.3,53.0,29.92,SSE,155,1.0,8.0,47,0.00,,,0.00,weatherlink.com 1.10,2013-07-29 18:40:00,
2013-07-29 11:55:00,75.7,54.0,29.92,WSW,239,1.0,4.0,47,0.00,,,0.00,weatherlink.com 1.10,2013-07-29 18:55:00,
2013-07-29 12:10:00,75.3,52.0,29.92,SSE,153,1.0,9.0,44,0.00,,,0.00,weatherlink.com 1.10,2013-07-29 19:10:00,
2013-07-29 12:25:00,76.9,54.0,29.92,WNW,302,3.0,6.0,45,0.00,,,0.00,weatherlink.com 1.10,2013-07-29 19:25:00,
2013-07-29 12:40:00,78.3,53.0,29.92,NE,47,1.0,7.0,41,0.00,,,0.00,weatherlink.com 1.10,2013-07-29 19:40:00,
2013-07-29 12:55:00,78.9,54.0,29.92,SE,130,2.0,9.0,42,0.00,,,0.00,weatherlink.com 1.10,2013-07-29 19:55:00,
2013-07-29 13:25:00,78.8,52.0,29.92,SSE,160,1.0,9.0,39,0.00,,,0.00,weatherlink.com 1.10,2013-07-29 20:25:00,
2013-07-29 13:40:00,80.7,54.0,29.92,NNE,18,2.0,7.0,40,0.00,,,0.00,weatherlink.com 1.10,2013-07-29 20:40:00,
2013-07-29 13:55:00,81.4,53.0,29.91,SW,233,3.0,6.0,38,0.00,,,0.00,weatherlink.com 1.10,2013-07-29 20:55:00,
2013-07-29 14:10:00,81.2,53.0,29.91,ENE,78,3.0,7.0,38,0.00,,,0.00,weatherlink.com 1.10,2013-07-29 21:10:00,
2013-07-29 14:25:00,82.4,54.0,29.91,SSW,205,1.0,6.0,37,0.00,,,0.00,weatherlink.com 1.10,2013-07-29 21:25:00,
2013-07-29 14:40:00,83.6,53.0,29.90,SSW,193,3.0,9.0,35,0.00,,,0.00,weatherlink.com 1.10,2013-07-29 21:40:00,
2013-07-29 14:55:00,84.2,53.0,29.90,East,84,1.0,8.0,34,0.00,,,0.00,weatherlink.com 1.10,2013-07-29 21:55:00,
2013-07-29 15:10:00,84.7,51.0,29.90,ESE,120,3.0,7.0,31,0.00,,,0.00,weatherlink.com 1.10,2013-07-29 22:10:00,
2013-07-29 15:25:00,85.0,53.0,29.90,SSW,207,0.0,7.0,33,0.00,,,0.00,weatherlink.com 1.10,2013-07-29 22:25:00,
2013-07-29 15:56:00,85.7,53.0,29.89,SSE,153,4.0,10.0,32,0.00,,,0.00,weatherlink.com 1.10,2013-07-29 22:56:00,
2013-07-29 16:11:00,85.8,52.0,29.89,West,276,2.0,7.0,31,0.00,,,0.00,weatherlink.com 1.10,2013-07-29 23:11:00,
2013-07-29 16:26:00,86.0,52.0,29.89,East,86,0.0,5.0,31,0.00,,,0.00,weatherlink.com 1.10,2013-07-29 23:26:00,
2013-07-29 16:41:00,86.5,52.0,29.89,SE,127,1.0,9.0,30,0.00,,,0.00,weatherlink.com 1.10,2013-07-29 23:41:00,
2013-07-29 16:56:00,86.6,52.0,29.89,South,179,1.0,8.0,30,0.00,,,0.00,weatherlink.com 1.10,2013-07-29 23:56:00,
2013-07-29 17:11:00,86.0,50.0,29.89,SSW,195,3.0,7.0,29,0.00,,,0.00,weatherlink.com 1.10,2013-07-30 00:11:00,
2013-07-29 17:41:00,86.0,51.0,29.88,SSE,163,6.0,6.0,30,0.00,,,0.00,weatherlink.com 1.10,2013-07-30 00:41:00,
2013-07-29 17:56:00,85.2,51.0,29.88,SSW,200,1.0,7.0,31,0.00,,,0.00,weatherlink.com 1.10,2013-07-30 00:56:00,
2013-07-29 18:11:00,84.6,52.0,29.88,ESE,111,3.0,5.0,33,0.00,,,0.00,weatherlink.com 1.10,2013-07-30 01:11:00,
2013-07-29 18:26:00,83.9,53.0,29.88,SE,135,1.0,7.0,35,0.00,,,0.00,weatherlink.com 1.10,2013-07-30 01:26:00,
2013-07-29 18:56:00,81.7,53.0,29.89,SE,131,1.0,7.0,37,0.00,,,0.00,weatherlink.com 1.10,2013-07-30 01:56:00,
2013-07-29 19:11:00,80.2,53.0,29.89,West,271,1.0,4.0,39,0.00,,,0.00,weatherlink.com 1.10,2013-07-30 02:11:00,
2013-07-29 19:26:00,78.5,53.0,29.90,NNW,328,0.0,3.0,41,0.00,,,0.00,weatherlink.com 1.10,2013-07-30 02:26:00,
2013-07-29 19:41:00,77.1,52.0,29.90,SE,141,1.0,3.0,42,0.00,,,0.00,weatherlink.com 1.10,2013-07-30 02:41:00,
2013-07-29 20:11:00,74.6,51.0,29.91,SE,146,3.0,3.0,44,0.00,,,0.00,weatherlink.com 1.10,2013-07-30 03:11:00,
2013-07-29 20:26:00,73.8,51.0,29.91,South,171,1.0,5.0,45,0.00,,,0.00,weatherlink.com 1.10,2013-07-30 03:26:00,
2013-07-29 20:41:00,72.9,51.0,29.92,SSW,203,1.0,6.0,46,0.00,,,0.00,weatherlink.com 1.10,2013-07-30 03:41:00,
2013-07-29 20:56:00,71.4,52.0,29.92,East,86,2.0,3.0,50,0.00,,,0.00,weatherlink.com 1.10,2013-07-30 03:56:00,
2013-07-29 21:26:00,68.8,53.0,29.94,ESE,118,2.0,5.0,57,0.00,,,0.00,weatherlink.com 1.10,2013-07-30 04:26:00,
2013-07-29 21:41:00,68.0,53.0,29.95,SE,132,2.0,4.0,59,0.00,,,0.00,weatherlink.com 1.10,2013-07-30 04:41:00,
2013-07-29 21:56:00,67.1,53.0,29.95,SE,131,1.0,3.0,61,0.00,,,0.00,weatherlink.com 1.10,2013-07-30 04:56:00,
2013-07-29 22:41:00,65.5,53.0,29.96,SE,129,2.0,3.0,64,0.00,,,0.00,weatherlink.com 1.10,2013-07-30 05:41:00,
2013-07-29 22:56:00,64.8,52.0,29.96,ESE,105,0.0,5.0,64,0.00,,,0.00,weatherlink.com 1.10,2013-07-30 05:56:00,
2013-07-29 23:11:00,64.3,52.0,29.96,ENE,78,3.0,3.0,64,0.00,,,0.00,weatherlink.com 1.10,2013-07-30 06:11:00,
2013-07-29 23:26:00,63.9,52.0,29.96,SE,128,1.0,3.0,65,0.00,,,0.00,weatherlink.com 1.10,2013-07-30 06:26:00,
2013-07-29 23:41:00,63.3,52.0,29.97,SSE,162,1.0,4.0,66,0.00,,,0.00,weatherlink.com 1.10,2013-07-30 06:41:00,